Volver al catálogo

STARLINK-34608

ActivoComunicacionesVLEO
NORAD 64810·PAYLOAD·🇺🇸 United States

Lanzado Jul 16, 2025 desde Vandenberg Space Force Base

Loading…

Próximos Pases (próximas 24 horas)

TLE

ActualizadoSource: CelesTrak SupGP

Época: Sep 15, 2026, 03:51 UTC

1 64810C 25150W   26258.16090278 -.00032581  00000+0 -27275-2 0  2581
2 64810  70.0027  16.6180 0003174 255.8298 355.5653 14.98389189    16

Sigue STARLINK-34608 en tiempo real con AllMySat

Download on the App Store